Watertown, WI

6:14 PM CST on January 19, 2017 (GMT -0600)
Watertown Municipal

Weather History for KRYV - April, 2014

Change the Weather History Date:

Tuesday, April 8, 2014

  Actual Average Record
Temperature  
Mean Temperature 46 °F -  
Max Temperature 57 °F 54 °F 79 °F (1991)
Min Temperature 36 °F 32 °F 13 °F (1972)
Degree Days  
Heating Degree Days 18    
Moisture  
Dew Point 36 °F    
Average Humidity 70    
Maximum Humidity 95    
Minimum Humidity 40    
Precipitation  
Precipitation 0.01 in - - ()
Sea Level Pressure  
Sea Level Pressure 29.77 in    
Wind  
Wind Speed 7 mph (NNW)    
Max Wind Speed 16 mph    
Max Gust Speed 22 mph    
Visibility 10 miles    
Events Rain    
Averages and records for this station are not official NWS values.
T = Trace of Precipitation, MM = Missing Value Source: NWS Daily Summary

Daily Weather History Graph

Daily Weather History Graph

Search for Another Location

Airport or City:

Trip Planner

Search our weather history database for the weather conditions in past years. The results will help you decide how hot, cold, wet, or windy it might be!

Date:

Astronomy

Apr. 08, 2014 Rise Set
Actual Time 6:24 AM CDT 7:29 PM CDT
Civil Twilight 5:55 AM CDT 7:58 PM CDT
Nautical Twilight 5:20 AM CDT 8:33 PM CDT
Astronomical Twilight 4:44 AM CDT 9:10 PM CDT
Moon 1:13 PM CDT (4/8) 2:46 AM CDT (4/8)
Length of Visible Light 14h 03m
Length of Day
13h 04m
Waxing Gibbous, 63% of the Moon is Illuminated
Apr 8
Waxing Gibbous
Apr 15
Full
Apr 22
Last Quarter
Apr 29
New
May 6
First Quarter

Hourly Weather History & Observations

Time (CDT) Temp. Windchill Dew Point Humidity Pressure Visibility Wind Dir Wind Speed Gust Speed Precip Events Conditions
12:15 AM 46.0 °F 41.4 °F 43.9 °F 92% 29.64 in 10.0 mi NNW 9.2 mph - N/A Rain Light Rain
12:35 AM 46.0 °F 41.4 °F 43.7 °F 92% 29.64 in 10.0 mi NNW 9.2 mph - N/A   Light Drizzle
12:55 AM 45.9 °F 41.2 °F 43.7 °F 92% 29.65 in 10.0 mi NW 9.2 mph - N/A   Light Drizzle
1:15 AM 45.5 °F 41.8 °F 43.7 °F 93% 29.65 in 10.0 mi NNW 6.9 mph - N/A   Light Drizzle
1:35 AM 45.0 °F 41.8 °F 43.7 °F 95% 29.65 in 7.0 mi NNW 5.8 mph - N/A   Light Drizzle
1:55 AM 45.0 °F 42.6 °F 43.7 °F 95% 29.65 in 7.0 mi NW 4.6 mph - N/A   Overcast
2:15 AM 45.0 °F 41.2 °F 43.2 °F 93% 29.65 in 7.0 mi NW 6.9 mph - N/A Rain Light Rain
2:35 AM 44.8 °F 41.0 °F 42.4 °F 91% 29.65 in 7.0 mi NW 6.9 mph - N/A   Drizzle
2:55 AM 44.2 °F 39.7 °F 41.2 °F 89% 29.65 in 10.0 mi NW 8.1 mph - 0.01 in   Overcast
3:15 AM 43.7 °F 39.7 °F 39.9 °F 87% 29.65 in 10.0 mi NW 6.9 mph - N/A   Overcast
3:35 AM 43.0 °F 40.3 °F 39.4 °F 87% 29.66 in 10.0 mi NW 4.6 mph - N/A   Overcast
3:55 AM 42.4 °F 39.6 °F 38.8 °F 87% 29.66 in 10.0 mi NW 4.6 mph - N/A   Mostly Cloudy
4:15 AM 41.2 °F 39.2 °F 38.3 °F 89% 29.66 in 10.0 mi WNW 3.5 mph - N/A   Overcast
4:35 AM 40.3 °F 36.3 °F 37.4 °F 89% 29.66 in 10.0 mi NW 5.8 mph - N/A   Scattered Clouds
4:55 AM 39.2 °F 35.0 °F 36.5 °F 90% 29.67 in 10.0 mi NW 5.8 mph - N/A   Scattered Clouds
5:15 AM 38.7 °F 34.3 °F 35.8 °F 89% 29.67 in 10.0 mi NNW 5.8 mph - N/A   Clear
5:35 AM 38.3 °F 33.9 °F 35.6 °F 90% 29.68 in 10.0 mi NW 5.8 mph - N/A   Mostly Cloudy
5:55 AM 38.3 °F 34.8 °F 35.1 °F 88% 29.69 in 10.0 mi NW 4.6 mph - N/A   Overcast
6:15 AM 37.6 °F 34.0 °F 34.7 °F 89% 29.70 in 10.0 mi NNW 4.6 mph - N/A   Overcast
6:35 AM 38.3 °F 34.8 °F 34.9 °F 87% 29.71 in 10.0 mi NW 4.6 mph - N/A   Overcast
6:55 AM 38.3 °F 33.9 °F 34.9 °F 87% 29.72 in 10.0 mi NW 5.8 mph - N/A   Overcast
7:15 AM 38.7 °F 35.2 °F 35.1 °F 87% 29.73 in 10.0 mi NNW 4.6 mph - N/A   Overcast
7:35 AM 39.2 °F 34.2 °F 35.6 °F 87% 29.73 in 10.0 mi NW 6.9 mph - N/A   Overcast
7:55 AM 39.6 °F 35.4 °F 36.0 °F 87% 29.73 in 10.0 mi NW 5.8 mph - N/A   Overcast
8:15 AM 40.8 °F 34.5 °F 36.9 °F 86% 29.74 in 10.0 mi NNW 10.4 mph - N/A   Mostly Cloudy
8:35 AM 42.4 °F 36.5 °F 37.6 °F 83% 29.74 in 10.0 mi NNW 10.4 mph - N/A   Scattered Clouds
8:55 AM 43.5 °F 38.9 °F 37.9 °F 81% 29.74 in 10.0 mi NNW 8.1 mph - N/A   Scattered Clouds
9:15 AM 44.4 °F 39.0 °F 37.6 °F 77% 29.75 in 10.0 mi NNW 10.4 mph - N/A   Clear
9:35 AM 45.9 °F 42.9 °F 38.3 °F 75% 29.75 in 10.0 mi North 5.8 mph - N/A   Clear
9:55 AM 47.5 °F - 38.5 °F 71% 29.76 in 10.0 mi NNW 8.1 mph - N/A   Clear
10:15 AM 48.4 °F - 38.8 °F 70% 29.77 in 10.0 mi NNW 5.8 mph - N/A   Scattered Clouds
10:35 AM 50.2 °F - 39.0 °F 66% 29.77 in 10.0 mi NW 6.9 mph - N/A   Mostly Cloudy
10:55 AM 50.4 °F - 38.1 °F 63% 29.78 in 10.0 mi North 10.4 mph - N/A   Scattered Clouds
11:15 AM 50.9 °F - 37.6 °F 60% 29.78 in 10.0 mi NNW 11.5 mph 16.1 mph N/A   Scattered Clouds
11:35 AM 53.2 °F - 38.1 °F 57% 29.78 in 10.0 mi NNW 8.1 mph 17.3 mph N/A   Scattered Clouds
11:55 AM 54.1 °F - 37.6 °F 54% 29.78 in 10.0 mi NNW 13.8 mph 21.9 mph N/A   Mostly Cloudy
12:15 PM 53.4 °F - 37.8 °F 55% 29.78 in 10.0 mi North 13.8 mph 18.4 mph N/A   Mostly Cloudy
12:35 PM 54.1 °F - 37.2 °F 53% 29.78 in 10.0 mi NNW 13.8 mph 18.4 mph N/A   Mostly Cloudy
12:55 PM 56.1 °F - 37.4 °F 49% 29.78 in 10.0 mi NW 12.7 mph - N/A   Scattered Clouds
1:15 PM 55.9 °F - 35.8 °F 47% 29.78 in 10.0 mi NW 13.8 mph 21.9 mph N/A   Scattered Clouds
1:35 PM 57.4 °F - 35.6 °F 44% 29.78 in 10.0 mi NNE 10.4 mph 20.7 mph N/A   Mostly Cloudy
1:55 PM 54.5 °F - 34.5 °F 47% 29.78 in 10.0 mi NNW 11.5 mph 17.3 mph N/A   Mostly Cloudy
2:15 PM 56.1 °F - 35.2 °F 45% 29.78 in 10.0 mi WNW 12.7 mph - N/A   Scattered Clouds
2:35 PM 55.2 °F - 34.2 °F 45% 29.79 in 10.0 mi NW 16.1 mph - N/A   Mostly Cloudy
2:55 PM 55.0 °F - 33.3 °F 44% 29.79 in 10.0 mi NNW 11.5 mph 20.7 mph N/A   Overcast
3:15 PM 54.7 °F - 32.7 °F 43% 29.79 in 10.0 mi NNW 10.4 mph 18.4 mph N/A   Overcast
3:35 PM 57.0 °F - 33.8 °F 42% 29.79 in 10.0 mi NW 11.5 mph 20.7 mph N/A   Overcast
3:55 PM 54.9 °F - 33.3 °F 44% 29.80 in 10.0 mi NNW 12.7 mph 17.3 mph N/A   Overcast
4:15 PM 55.4 °F - 33.1 °F 43% 29.80 in 10.0 mi NNW 12.7 mph 19.6 mph N/A   Overcast
4:35 PM 55.8 °F - 32.7 °F 42% 29.80 in 10.0 mi NNW 10.4 mph - N/A   Mostly Cloudy
4:55 PM 55.8 °F - 32.0 °F 41% 29.81 in 10.0 mi NNW 9.2 mph 17.3 mph N/A   Mostly Cloudy
5:15 PM 55.8 °F - 31.6 °F 40% 29.82 in 10.0 mi NNW 10.4 mph 19.6 mph N/A   Scattered Clouds
5:35 PM 54.7 °F - 31.3 °F 41% 29.82 in 10.0 mi North 10.4 mph 17.3 mph N/A   Mostly Cloudy
5:55 PM 53.6 °F - 31.8 °F 44% 29.83 in 10.0 mi NNW 12.7 mph 18.4 mph N/A   Overcast
6:15 PM 54.5 °F - 31.6 °F 42% 29.84 in 10.0 mi NW 8.1 mph - N/A   Overcast
6:35 PM 51.6 °F - 34.0 °F 51% 29.85 in 10.0 mi North 12.7 mph 18.4 mph N/A   Mostly Cloudy
6:55 PM 51.4 °F - 34.0 °F 51% 29.85 in 10.0 mi NNW 6.9 mph - N/A   Mostly Cloudy
7:15 PM 50.5 °F - 33.1 °F 51% 29.86 in 10.0 mi NNW 8.1 mph - N/A   Overcast
7:35 PM 48.2 °F - 32.5 °F 55% 29.87 in 10.0 mi North 3.5 mph - N/A   Scattered Clouds
7:55 PM 47.3 °F - 32.9 °F 57% 29.87 in 10.0 mi Calm Calm - N/A   Clear
8:15 PM 42.3 °F - 32.0 °F 67% 29.89 in 10.0 mi Calm Calm - N/A   Clear
8:35 PM 41.7 °F - 32.0 °F 68% 29.89 in 10.0 mi Calm Calm - N/A   Clear
8:55 PM 40.6 °F - 32.4 °F 72% 29.90 in 10.0 mi Calm Calm - N/A   Clear
9:15 PM 36.3 °F - 30.7 °F 80% 29.90 in 10.0 mi Calm Calm - N/A   Clear
9:35 PM 37.2 °F - 31.6 °F 80% 29.91 in 10.0 mi Calm Calm - N/A   Clear
9:55 PM 36.7 °F - 31.3 °F 81% 29.91 in 10.0 mi Calm Calm - N/A   Scattered Clouds
10:15 PM 39.0 °F - 32.9 °F 79% 29.91 in 10.0 mi Calm Calm - N/A   Overcast
10:35 PM 37.6 °F - 32.0 °F 80% 29.91 in 10.0 mi Calm Calm - N/A   Overcast
10:55 PM 38.3 °F - 32.4 °F 79% 29.92 in 10.0 mi Calm Calm - N/A   Overcast
11:15 PM 38.1 °F - 33.3 °F 83% 29.92 in 10.0 mi Calm Calm - N/A   Overcast
11:35 PM 37.0 °F 34.5 °F 31.8 °F 81% 29.93 in 10.0 mi NNE 3.5 mph - N/A   Mostly Cloudy
11:55 PM 38.3 °F 35.9 °F 32.0 °F 78% 29.93 in 10.0 mi NE 3.5 mph - N/A   Mostly Cloudy